Voltar ao catálogo

LEGION 1

AtivoCiênciaSSO
NORAD 59625·PAYLOAD·🇺🇸 United States

Lançado May 2, 2024 de Vandenberg Space Force Base

Loading…

Próximas Passagens (próximas 24 horas)

TLE

AtualizadoSource: Space-Track

Época: Sep 14, 2026, 13:01 UTC

1 59625U 24081A   26257.54250786  .00002738  00000-0  14107-3 0  9997
2 59625  97.4953 334.4467 0010565  63.0306 297.2005 15.17192410131081

Acompanhe LEGION 1 em tempo real com AllMySat

Download on the App Store